Showing default

COSMOS 82, 1572

Orbit data source: Space-Track

COSMOS 82, 1572 is a payload satellite owned by OKB-10 (CIS) in LEO that was launched on Fri, 03 Sep 1965 UTC via a KOSMOS 65S3 launch vehicle from the Tyuratam Missile And Space Complex (TTMTR). Payload-class satellites include a variety of spacecraft equipped with specific instruments for various scientific and technological missions. These include communications satellites like Starlink; space stations such as the ISS; scientific satellites like the Hubble; Earth observation satellites from companies like Planet Labs, Umbra, and HawkEye 360; GPS; miniature CubeSats for education and research; and military/defense satellites.

Loading next visibility...
Identifier
1572, 1965-070C
Orbit
LEO
Country
Flag of CISCIS
Related business
Manufacturer
OKB-10
Mission
Spacecraft
Bus & Motor
STRELA-1 11F610, Unknown motor
Mass
50 kg wet, 50 kg dry
Launch date (UTC)
1965-09-03 (61 years ago)
Launch vehicle
KOSMOS 65S3
Launch site
Tyuratam Missile And Space Complex (TTMTR)
Object type
Payload
Rocket body
Debris
Shape & HBR
Unknown
Radar Cross Section
Medium (>0.1 m² and <1 m²)

Expand to show TLE details & history
Last TLE update: 16 hours ago

TLE from 16 hours ago
0 COSMOS 82
1 01572U 65070C   26123.43486878 -.00000081  00000-0  88844-4 0  9991
2 01572  56.0621  17.2728 0073667 198.5744 344.4211 12.45123015758622
Epoch: 2026-05-03T10:26Z
TLE epoch observation values (Epoch: 2026-05-03T10:26:12.662Z)
Latitude
-2.3831°
Longitude
-179.02154°
Altitude
1,430.588 km
Speed
7.172 km/s
True Right ascension
13h 15m 28s
True Declination
-2° 22' 12"
Sunlit
Object was in full shadow at epoch
Visualization orbit readout
Latitude
Unknown
Longitude
Unknown
Altitude
Unknown
Speed
Unknown
Apparent Right ascension
Unknown
Apparent Declination
Unknown
Sunlit
N/A
Visualization observer readout
Local Sidereal Time
09:47:03
Azimuth
Unknown
Elevation
Unknown
Doppler factor
Unknown
Orbital elements
Apogee altitude
1,542.707 km
Perigee altitude
1,426.86 km
Semi-major axis
7,862.921 km
Eccentricity
0.00737
Inclination
56.0621°
RAAN
17.2728°
Arg. of periapsis
198.5744°
True anomaly
344.19236°
Mean anomaly
344.4211°
Eccentric anomaly
344.30693°
Mean motion
3.11292 °/min
Orbital period
115.65 mins
BSTAR
0.000088844
Loading maneuver chart data...
Computing Atmospheric mass density...
Loading historical data...
Loading historical data...
Loading historical data...
Loading historical data...
Loading historical data...
Loading historical data...
Loading historical data...
Other satellites on launch #70 in the year 1965 (1965-09-03 UTC)

Documentation

Showing up to 5 results
|